Racine, WI

11:29 AM CST on February 25, 2017 (GMT -0600)
Batten

Weather History for KRAC - January, 2013

Change the Weather History Date:

Monday, January 7, 2013

  Actual Average Record
Temperature  
Mean Temperature 28 °F -  
Max Temperature 39 °F 26 °F 63 °F (2008)
Min Temperature 17 °F 11 °F -17 °F (1968)
Degree Days  
Heating Degree Days 37    
Moisture  
Dew Point 20 °F    
Average Humidity 74    
Maximum Humidity 88    
Minimum Humidity 53    
Precipitation  
Precipitation 0.00 in - - ()
Sea Level Pressure  
Sea Level Pressure 30.20 in    
Wind  
Wind Speed 10 mph (SSW)    
Max Wind Speed 21 mph    
Max Gust Speed 29 mph    
Visibility 9 miles    
Events      
Averages and records for this station are not official NWS values.
T = Trace of Precipitation, MM = Missing Value Source: NWS Daily Summary

Daily Weather History Graph

Daily Weather History Graph

Search for Another Location

Airport or City:

Trip Planner

Search our weather history database for the weather conditions in past years. The results will help you decide how hot, cold, wet, or windy it might be!

Date:

Astronomy

Jan. 07, 2013 Rise Set
Actual Time 7:21 AM CST 4:34 PM CST
Civil Twilight 6:49 AM CST 5:05 PM CST
Nautical Twilight 6:14 AM CST 5:41 PM CST
Astronomical Twilight 5:40 AM CST 6:15 PM CST
Moon 2:43 AM CST (1/7) 12:46 PM CST (1/7)
Length of Visible Light 10h 16m
Length of Day
9h 12m
Waning Crescent, 22% of the Moon is Illuminated
Jan 7
Waning Crescent
Jan 11
New
Jan 18
First Quarter
Jan 26
Full
Feb 3
Last Quarter

Hourly Weather History & Observations

Time (CST) Temp. Windchill Dew Point Humidity Pressure Visibility Wind Dir Wind Speed Gust Speed Precip Events Conditions
12:53 AM 19.0 °F 11.1 °F 16.0 °F 88% 30.32 in 6.0 mi WSW 5.8 mph - N/A   Clear
1:53 AM 18.0 °F 9.8 °F 15.1 °F 88% 30.33 in 6.0 mi SW 5.8 mph - N/A   Clear
2:53 AM 17.1 °F 8.7 °F 14.0 °F 88% 30.32 in 6.0 mi SSW 5.8 mph - N/A   Clear
3:53 AM 18.0 °F 8.7 °F 14.0 °F 84% 30.31 in 8.0 mi SSW 6.9 mph - N/A   Clear
4:53 AM 18.0 °F 7.7 °F 14.0 °F 84% 30.30 in 9.0 mi SSW 8.1 mph - N/A   Clear
5:53 AM 18.0 °F 6.1 °F 12.9 °F 81% 30.30 in 10.0 mi SW 10.4 mph - N/A   Clear
6:53 AM 19.9 °F 7.3 °F 14.0 °F 78% 30.30 in 10.0 mi SSW 12.7 mph - N/A   Clear
7:53 AM 21.9 °F 9.8 °F 16.0 °F 78% 30.29 in 10.0 mi SSW 12.7 mph - N/A   Clear
8:53 AM 26.1 °F 13.6 °F 18.0 °F 71% 30.26 in 10.0 mi SSW 16.1 mph 26.5 mph N/A   Clear
9:53 AM 28.9 °F 16.9 °F 19.0 °F 67% 30.25 in 10.0 mi SSW 17.3 mph 24.2 mph N/A   Clear
10:53 AM 32.0 °F 21.2 °F 19.9 °F 61% 30.22 in 10.0 mi SSW 16.1 mph - N/A   Clear
11:53 AM 35.1 °F 23.8 °F 21.0 °F 57% 30.17 in 10.0 mi SW 20.7 mph 28.8 mph N/A   Clear
1:53 PM 39.0 °F 29.9 °F 24.1 °F 55% 30.11 in 10.0 mi SW 17.3 mph 28.8 mph N/A   Clear
2:53 PM 39.9 °F 30.5 °F 24.1 °F 53% 30.09 in 10.0 mi SSW 19.6 mph 28.8 mph N/A   Clear
3:53 PM 37.9 °F 30.0 °F 24.1 °F 57% 30.10 in 10.0 mi SW 12.7 mph - N/A   Clear
5:53 PM 35.1 °F 28.6 °F 24.1 °F 64% 30.11 in 10.0 mi SW 8.1 mph - N/A   Clear
6:53 PM 34.0 °F 25.5 °F 25.0 °F 70% 30.11 in 10.0 mi SSW 11.5 mph - N/A   Clear
7:53 PM 33.1 °F 25.5 °F 25.0 °F 72% 30.10 in 10.0 mi SSW 9.2 mph - N/A   Clear
8:53 PM 32.0 °F 23.6 °F 26.1 °F 79% 30.11 in 8.0 mi SSW 10.4 mph - N/A   Clear
9:53 PM 32.0 °F 23.6 °F 26.1 °F 79% 30.11 in 7.0 mi SSW 10.4 mph - N/A   Clear
10:53 PM 30.9 °F 21.2 °F 26.1 °F 82% 30.10 in 7.0 mi SSW 12.7 mph - N/A   Clear
11:53 PM 30.9 °F 21.7 °F 26.1 °F 82% 30.10 in 7.0 mi SSW 11.5 mph - N/A   Clear